Regional Weather Roundup
Issued by NWS

Home | Current Version | Previous Version | Text Only | Print | Product List | Glossary On
Versions: 1 2 3 4 5 6 7 8 9 10 11 12 13 14 15 16 17 18 19 20 21 22 23 24 25 26 27 28 29 30 31 32 33 34 35 36 37 38 39 40 41 42 43 44 45 46 47 48 49 50
000
ASUS43 KTOP 100859
RWRKS

WEATHER ROUNDUP FOR KANSAS
NATIONAL WEATHER SERVICE GOODLAND KS
300 AM CST WED FEB 10 2016

NOTE:  "FAIR" INDICATES FEW OR NO CLOUDS BELOW 12,000 FEET WITH NO
SIGNIFICANT WEATHER AND/OR OBSTRUCTIONS TO VISIBILITY.

KSZ001>006-013>018-027>032-041>047-101000-
NORTHWEST KANSAS

CITY           SKY/WX    TMP DP  RH WIND       PRES   REMARKS
GOODLAND       CLEAR     37  25  61 W15       30.13F WCI  28
HAYS           CLEAR     27  16  63 SW6       30.11F
HILL CITY      CLEAR     30  25  81 W5        30.10F
RUSSELL        CLEAR     28  22  78 SW12      30.11F WCI  18
$$

KSZ061>065-074>080-084>089-101000-
SOUTHWEST KANSAS

CITY           SKY/WX    TMP DP  RH WIND       PRES   REMARKS
DODGE CITY     CLEAR     30  22  72 SW9       30.16F
ELKHART          N/A     37  22  54 W10         N/A  WCI  30
GARDEN CITY    CLEAR     33  25  72 W13       30.15F WCI  24
GREAT BEND     CLEAR     28  16  59 SW10      30.15F WCI  19
LIBERAL        CLEAR     36  25  64 W12       30.20F WCI  27
$$

KSZ066>073-081>083-090>101-101000-
SOUTHEAST KANSAS

CITY           SKY/WX    TMP DP  RH WIND       PRES   REMARKS
CHANUTE        PTCLDY    19  11  70 CALM      30.25F
COFFEYVILLE    CLEAR     19  12  74 S3        30.28F
HUTCHINSON     CLOUDY    28  17  63 S8        30.19F
MEDICINE LODGE   N/A     26  19  74 S5        30.21F
NEWTON         CLOUDY    27  12  54 S9        30.22S
PARSONS        CLEAR     17  12  80 CALM      30.27F
WICHITA INTL   CLOUDY    29  15  56 S10       30.22F WCI  20
WICHITA JABRA  CLOUDY    26  13  57 S5        30.23S
WINFIELD       CLOUDY    27  16  63 S5        30.26F
$$

KSZ007>012-019>026-033>040-048>060-102>105-101000-
NORTHEAST KANSAS

CITY           SKY/WX    TMP DP  RH WIND       PRES   REMARKS
CONCORDIA      CLOUDY    27  15  61 S7        30.15F
EMPORIA        CLOUDY    21  14  74 SW6       30.22S
LAWRENCE       CLOUDY    21  16  81 CALM      30.22F
MANHATTAN      CLOUDY    23  15  71 S3        30.22R
OLATHE IND     MOCLDY    21  13  71 SW5       30.22F
OLATHE EXE     CLOUDY    21  11  65 W3        30.21F
SALINA         CLOUDY    29  17  61 SE8       30.19F
TOPEKA BILLARD CLOUDY    23  13  65 CALM      30.22F
TOPEKA FORBES  CLOUDY    22  14  71 S3        30.21F
$$



USA.gov is the U.S. government's official web portal to all federal, state and local government web resources and services.